Weather Service Report


633 
ASUS44 KJAN 200610
RWRMS 

MISSISSIPPI HOURLY WEATHER ROUNDUP
NATIONAL WEATHER SERVICE JACKSON MS
100 AM CDT SAT SEP 20 2014

NOTE: "FAIR: INDICATES FEW OR NO CLOUDS BELOW 12,000 FEET WITH NO
SIGNIFICANT WEATHER AND/OR OBSTRUCTIONS TO VISIBILITY.

MSZ001>002-007>008-010>013-018>021-025>028-034>036-200700-
NORTHWEST MISSISSIPPI
  
CITY           SKY/WX    TMP DP  RH WIND       PRES   REMARKS
CLARKSDALE     FAIR      72  72 100 CALM      30.02S                  
CLEVELAND      FAIR      71  69  95 NE6       29.99F                  
GREENWOOD      CLEAR     72  67  84 E6        29.99F                  
6HR MIN TEMP:  70; 6HR MAX TEMP:  78;                                

GREENVILLE     CLEAR     71  66  84 CALM      29.99S                  
6HR MIN TEMP:  70; 6HR MAX TEMP:  85;                                

GRENADA        FAIR      68  68 100 CALM      30.01F                  
OLIVE BRANCH   CLEAR     70  70 100 E5        30.03F                  
OXFORD         FAIR      66  64  94 CALM      30.05S                  
TUNICA         CLEAR     66  64  94 E3        30.02F                  
$$

MSZ003>006-009-014>017-022>024-029>033-037>039-200700-
NORTHEAST MISSISSIPPI
  
CITY           SKY/WX    TMP DP  RH WIND       PRES   REMARKS
COLUMBUS AFB   CLEAR     71  67  86 E2        30.02F                  
6HR MIN TEMP:  71; 6HR MAX TEMP:  80;                                

CORINTH          N/A     66  64  94 SE6       30.05R                  
GOLDN TRIANGLE CLEAR     73  63  68 SE10      30.02F                  
STARKVILLE     FAIR      72  64  78 SE6       30.01F                  
TUPELO         PTCLDY    71  68  90 CALM      30.03F                  
6HR MIN TEMP:  70; 6HR MAX TEMP:  81;                                

$$

MSZ040-058-200700-
CENTRAL MISSISSIPPI
  
CITY           SKY/WX    TMP DP  RH WIND       PRES   REMARKS
JACKSON INTL   CLEAR     71  68  90 CALM      29.98F                  
6HR MIN TEMP:  69; 6HR MAX TEMP:  82;                                

JACKSON HAWKNS CLEAR     73  69  87 CALM      29.99F                  
6HR MIN TEMP:  72; 6HR MAX TEMP:  84;                                

MERIDIAN KEY   CLEAR     69  66  90 CALM      30.00F                  
6HR MIN TEMP:  69; 6HR MAX TEMP:  84;                                

MERIDIAN NAS   CLEAR     71  65  81 SE6       30.01F                  
6HR MIN TEMP:  71; 6HR MAX TEMP:  81;                                

RAYMOND        FAIR      68  64  88 CALM      29.98F HAZE             
VICKSBURG      CLEAR     69  67  93 CALM      29.98S                  
6HR MIN TEMP:  68; 6HR MAX TEMP:  82;                                

$$

MSZ059>079-200700-
SOUTH MISSISSIPPI
  
CITY           SKY/WX    TMP DP  RH WIND       PRES   REMARKS
BROOKHAVEN     FAIR      68  68 100 CALM      30.01S FOG              
COLUMBIA       FAIR      68  66  94 CALM      29.97F FOG              
HATTIESBURG    CLEAR     70  68  93 CALM      29.99F                  
6HR MIN TEMP:  70; 6HR MAX TEMP:  74;                                

MCCOMB         CLEAR     70  68  93 CALM      29.98F                  
6HR MIN TEMP:  70; 6HR MAX TEMP:  79;                                

NATCHEZ        CLEAR     72  70  94 CALM      29.98F                  
6HR MIN TEMP:  72; 6HR MAX TEMP:  81;                                

PINE BELT      CLEAR    N/A N/A N/A CALM      30.00S                  
$$

MSZ080>082-200700-
COASTAL MISSISSIPPI
  
CITY           SKY/WX    TMP DP  RH WIND       PRES   REMARKS
BILOXI         CLEAR     75  69  81 NE7       29.96F                  
6HR MIN TEMP:  74; 6HR MAX TEMP:  81;                                

PASCAGOULA     CLEAR     72  68  87 NE5       29.96F                  
6HR MIN TEMP:  69; 6HR MAX TEMP:  78;                                

GULFPORT       CLEAR     75  69  81 NE5       29.95F                  
6HR MIN TEMP:  74; 6HR MAX TEMP:  81;                                

$$

Return to Home page


Western Regional Climate Center, wrcc@dri.edu